Location: Theodore Roosevelt National Park
(46.9990°N, 103.4631°W)
Time: 23:48:59
(UTC-06:00)

Iridium 37 - Visible Passes

Search period start: 18 September 2014 00:00
Search period end: 28 September 2014 00:00
Orbit: 776 x 779 km, 86.4° (Epoch: 18 September)

Date Brightness Start Highest point End Pass type
(mag) Time Alt. Az. Time Alt. Az. Time Alt. Az.
18 Sep 7.6 02:06:42 24° NNE 02:06:42 24° NNE 02:08:52 10° NNE visible
18 Sep 7.5 03:47:11 17° NW 03:47:11 17° NW 03:48:56 10° NNW visible
19 Sep 8.0 01:33:27 17° NE 01:33:27 17° NE 01:34:56 10° NNE visible
19 Sep 7.4 03:13:56 21° NNW 03:13:56 21° NNW 03:15:55 10° N visible
20 Sep 8.3 01:00:12 11° NE 01:00:12 11° NE 01:00:35 10° NE visible
20 Sep 7.5 02:40:41 23° N 02:40:41 23° N 02:42:36 10° N visible
21 Sep 7.8 02:07:25 21° N 02:07:25 21° N 02:09:04 10° N visible
21 Sep 7.9 03:47:54 12° NW 03:47:54 12° NW 03:48:27 10° NNW visible
22 Sep 8.1 01:34:08 16° NNE 01:34:08 16° NNE 01:35:18 10° NNE visible
22 Sep 7.8 03:14:37 15° NNW 03:14:37 15° NNW 03:15:45 10° NNW visible
23 Sep 8.4 01:00:51 12° NNE 01:00:51 12° NNE 01:01:14 10° NNE visible
23 Sep 7.8 02:41:20 17° NNW 02:41:20 17° NNW 02:42:35 10° N visible
24 Sep 8.0 02:08:03 17° N 02:08:03 17° N 02:09:11 10° N visible
25 Sep 8.2 01:34:45 15° NNE 01:34:45 15° NNE 01:35:33 10° N visible
25 Sep 8.1 03:15:14 11° NNW 03:15:14 11° NNW 03:15:24 10° NNW visible
26 Sep 8.5 01:01:27 11° NNE 01:01:27 11° NNE 01:01:41 10° NNE visible
26 Sep 8.1 02:41:56 13° NNW 02:41:56 13° NNW 02:42:29 10° NNW visible
27 Sep 8.2 02:08:37 13° N 02:08:37 13° N 02:09:13 10° N visible
